GFSMW_925_thetae_021.txt.gz
Theta_e
353 353 353 354 354 353 353 353 353 354 355 354 354 354 354 354 355 354 349 348 348 347 347 345 346 347 346 343 340 341 341 340 342 339 336 338 339 338 339 340 335 335 337
355 354 353 353 353 353 353 354 353 353 352 355 354 354 355 354 354 354 352 351 350 350 349 347 347 344 344 341 339 341 337 339 341 339 339 337 339 339 338 336 332 332 334
354 352 351 352 352 352 353 353 353 351 350 353 355 354 352 352 353 353 353 352 349 349 349 347 345 343 343 340 338 339 340 337 339 339 339 337 337 336 337 338 332 330 328
350 349 349 350 350 351 353 353 352 351 351 353 354 355 353 353 353 352 351 353 349 348 348 345 344 340 339 336 338 338 338 337 336 338 339 339 338 337 336 332 331 329 327
348 348 347 347 348 350 351 352 352 350 351 353 353 354 354 354 354 350 347 346 348 349 349 347 339 333 336 337 333 332 335 337 337 338 337 338 336 336 334 331 329 328 327
347 347 346 346 348 348 349 351 352 349 350 353 352 353 353 354 351 348 346 346 345 344 339 337 335 334 337 336 334 334 335 337 338 337 336 334 332 332 333 334 333 331 327
347 348 348 347 348 349 349 349 350 350 351 353 353 353 354 355 352 349 345 343 342 340 335 335 336 337 338 332 333 333 336 336 336 337 335 334 334 334 333 333 331 331 328
348 348 351 349 349 349 349 349 349 350 350 351 352 353 354 354 352 350 346 342 340 338 336 335 336 338 335 331 332 336 336 336 336 337 336 335 335 334 334 333 332 331 327
349 348 348 348 349 349 349 350 350 350 349 351 351 353 353 353 351 350 348 342 337 337 333 333 335 338 332 331 335 336 336 334 336 336 336 335 334 334 333 333 332 330 331
349 349 350 350 349 349 350 350 350 349 349 351 352 353 353 351 351 350 346 338 336 334 334 335 337 334 334 334 333 335 334 335 335 336 336 336 334 334 333 333 332 331 329
348 350 352 350 350 350 350 350 351 351 351 350 351 352 351 350 350 349 338 333 332 331 334 335 334 336 336 335 334 335 336 336 336 336 335 336 335 334 333 333 332 331 330
345 348 349 349 350 351 350 350 351 351 351 351 352 350 348 348 348 345 333 328 331 333 333 333 334 335 337 337 336 336 335 336 335 334 335 335 334 335 329 331 332 331 331
345 347 349 353 353 352 351 351 351 351 351 352 352 349 344 347 349 341 330 331 334 335 335 335 335 334 337 335 334 333 335 335 332 334 335 335 334 334 331 332 331 331 331
345 347 349 353 353 353 353 352 351 351 352 353 351 347 342 344 346 333 331 330 330 327 331 334 333 333 332 333 333 333 333 334 334 334 335 335 333 333 330 331 330 331 330
345 349 349 353 354 354 353 352 352 352 352 354 351 348 342 342 338 333 329 326 337 331 328 332 332 331 332 334 332 334 334 337 336 335 335 333 330 328 327 329 329 330 330
346 347 348 349 352 352 351 351 352 353 354 353 351 346 342 341 337 334 330 326 335 331 331 332 334 333 333 334 332 333 336 337 336 335 334 333 330 328 326 324 322 325 329
347 346 348 351 349 348 348 349 351 353 354 352 350 344 342 341 338 333 332 332 331 333 333 329 335 337 335 333 332 333 334 337 336 335 334 330 331 328 326 323 323 324 323
346 345 343 345 346 345 346 348 351 354 353 351 347 345 343 342 340 336 333 333 335 335 334 335 337 337 336 334 333 334 333 334 335 335 332 332 330 327 323 324 325 325 325
342 342 340 341 342 344 347 350 352 353 352 350 347 345 344 343 339 335 334 335 336 336 336 336 337 337 337 336 334 331 330 331 331 331 330 327 325 324 323 322 324 323 323
341 343 342 343 344 343 347 350 352 352 351 350 347 345 343 342 339 337 336 336 335 336 337 336 337 334 334 334 331 325 328 330 330 328 326 324 323 322 320 320 322 322 321
339 340 343 345 346 346 346 349 350 351 351 349 347 345 342 340 339 338 337 337 337 338 338 336 335 335 334 331 327 326 327 329 328 326 326 325 321 318 318 319 319 319 315
346 345 346 347 346 347 349 349 350 350 349 346 345 344 343 341 340 338 339 339 339 339 338 337 334 335 333 331 330 329 331 328 326 328 326 322 317 316 316 315 315 313 311
344 343 345 345 346 346 346 346 341 343 344 346 345 341 340 340 339 338 339 339 338 340 338 333 334 334 331 329 329 330 327 325 325 323 321 317 316 315 314 313 312 311 313
343 343 345 345 344 343 341 342 342 343 344 344 343 343 343 342 341 340 340 339 337 336 333 331 332 332 328 327 323 323 323 322 319 318 317 315 315 314 314 312 312 311 310
341 340 342 343 340 340 340 340 340 339 341 342 342 341 339 337 332 332 330 331 329 329 331 331 331 330 331 328 324 322 321 320 318 316 317 317 316 316 315 313 310 309 308
340 341 340 340 338 337 338 338 337 338 339 338 337 336 334 331 328 326 323 326 327 329 329 329 329 324 326 323 320 318 316 314 313 315 317 317 317 315 312 310 308 307 305

GFSMW_925_thetae_024.txt.gz
Theta_e
351 351 352 352 353 354 354 354 354 354 356 356 355 354 354 353 355 355 355 354 353 351 352 350 350 348 349 347 347 341 334 334 338 337 334 335 338 338 339 340 338 338 340
353 352 352 352 353 354 355 355 355 356 358 356 355 354 354 353 353 354 355 355 355 354 351 351 351 350 345 348 345 339 333 335 339 337 335 336 338 338 338 338 334 334 335
352 353 352 353 353 354 356 356 357 357 358 357 357 357 356 356 355 354 354 353 355 355 354 352 350 351 347 341 340 338 339 334 336 339 337 337 337 335 338 339 333 332 331
353 352 352 352 353 353 355 357 358 359 358 359 356 356 355 352 349 350 348 349 352 353 353 352 351 351 343 339 337 337 337 338 334 336 338 339 339 338 337 334 332 330 329
349 349 350 348 350 352 353 356 358 359 359 358 358 357 357 352 352 352 353 351 351 353 350 353 351 349 339 340 340 339 338 335 336 336 336 337 336 336 334 333 331 330 329
346 346 345 346 348 349 351 353 357 360 360 359 360 359 356 355 352 354 353 347 345 348 352 351 350 344 338 342 340 338 337 338 338 336 336 334 333 333 334 334 334 333 330
346 346 346 345 345 347 349 352 356 361 360 359 358 359 359 358 357 357 354 345 343 343 347 348 345 343 343 342 339 338 337 337 336 337 335 334 334 333 333 332 331 331 330
349 347 348 347 347 348 350 352 356 360 360 358 358 358 359 358 357 357 352 347 341 341 344 345 344 343 343 342 339 337 337 337 336 336 336 334 333 332 332 332 331 332 328
350 349 349 349 349 350 353 355 357 360 360 357 359 359 359 358 355 356 356 349 345 341 343 344 344 343 342 340 339 337 338 337 336 335 336 336 332 332 332 331 331 331 333
349 349 350 349 350 350 352 354 357 359 358 356 357 357 358 358 357 357 356 350 346 342 342 342 342 342 342 339 340 337 336 337 334 335 335 336 333 332 332 332 332 332 332
346 349 350 349 350 351 352 354 356 357 357 357 357 357 356 357 358 356 354 350 345 341 341 342 341 342 340 340 340 338 335 336 337 336 335 335 336 334 332 332 332 332 331
342 346 350 350 349 352 352 353 355 356 357 356 358 357 356 357 357 355 351 346 342 335 330 335 331 336 340 340 339 338 335 337 337 336 335 335 334 334 335 332 331 331 331
346 346 349 352 352 352 354 353 354 355 355 356 357 357 357 357 354 351 347 341 329 333 332 327 328 335 340 340 339 339 338 337 336 335 335 335 334 334 333 333 331 330 330
349 350 350 352 353 353 357 356 354 354 354 355 356 358 358 355 352 351 345 337 334 333 327 327 330 332 340 339 338 338 337 336 336 336 336 336 334 334 333 333 332 332 332
350 352 352 353 356 355 357 356 355 354 354 355 356 357 358 354 351 352 345 335 335 329 328 333 332 339 339 336 337 337 337 337 337 337 336 336 335 333 332 331 330 331 329
350 351 353 354 356 356 357 357 356 355 355 356 357 358 357 351 352 350 345 340 337 328 337 338 337 338 335 333 334 336 336 336 338 337 336 336 335 333 331 329 327 326 327
348 351 353 354 356 355 356 357 356 356 357 357 359 358 356 353 351 350 347 342 337 335 339 339 339 338 337 336 334 333 334 335 338 338 338 335 333 332 333 332 329 326 327
342 349 351 352 353 353 355 354 356 357 358 359 359 357 356 352 351 350 347 343 338 336 338 339 340 339 338 338 338 334 334 334 336 335 331 330 331 332 331 331 329 329 328
344 347 348 349 351 351 352 353 354 357 358 358 358 356 353 352 351 350 348 344 341 338 338 339 340 340 339 339 339 336 335 335 333 329 327 328 330 330 327 327 327 327 326
344 348 346 347 350 350 351 354 356 357 357 356 356 354 352 352 351 348 347 344 342 340 340 340 341 339 340 339 339 337 336 333 329 327 328 327 329 326 326 323 325 325 325
347 346 347 348 350 350 353 355 355 356 355 355 354 353 352 351 349 348 345 343 342 340 341 341 340 340 339 340 338 334 333 331 330 327 327 329 328 326 322 319 322 324 322
349 350 352 352 349 353 354 355 355 355 355 355 354 352 351 349 347 345 343 341 340 339 340 341 340 339 340 338 335 331 329 332 331 331 332 330 328 323 318 317 318 317 316
349 349 351 352 353 353 354 355 355 355 354 353 352 350 347 347 345 343 343 341 340 340 341 341 340 339 338 336 333 331 329 330 330 329 330 327 323 317 315 315 315 315 316
347 346 349 352 353 352 353 351 351 351 350 351 349 347 346 344 342 343 342 342 341 340 340 340 338 336 334 331 328 328 328 326 325 325 324 320 318 318 319 317 315 316 317
349 349 351 352 352 352 350 350 349 350 349 348 347 344 342 340 339 337 336 336 337 337 338 335 333 333 333 332 327 327 328 327 326 325 324 322 321 321 320 320 318 316 314
348 348 349 349 347 348 346 345 348 347 346 346 345 343 342 341 340 335 327 329 328 327 329 332 334 331 331 329 326 325 324 322 319 318 321 322 321 321 320 318 316 314 312

GFSMW_925_thetae_030.txt.gz
Theta_e
347 347 347 348 349 350 353 353 354 352 358 358 357 354 355 352 353 347 354 354 351 354 351 350 350 351 350 347 347 343 338 334 338 335 339 340 337 336 339 338 337 338 339
348 349 349 349 349 351 353 356 355 357 354 356 352 352 353 355 354 353 352 353 353 351 349 349 352 350 350 348 345 342 340 335 339 337 336 343 341 338 338 337 335 333 334
346 351 351 350 349 353 355 356 356 358 355 356 352 354 356 355 356 356 353 356 355 350 355 352 350 351 349 350 344 341 337 338 338 336 339 346 344 341 338 337 335 333 333
346 347 350 352 350 353 356 357 358 358 359 353 359 356 354 357 350 346 346 348 353 348 349 347 352 350 347 344 339 341 333 335 336 336 338 336 335 345 342 337 335 332 332
346 346 349 351 351 352 356 359 360 360 361 354 359 359 356 349 352 348 350 348 349 347 351 350 348 348 347 341 338 339 337 339 335 339 336 337 336 335 337 341 336 334 332
348 347 347 350 352 352 355 358 362 363 362 362 356 358 357 353 352 350 354 352 351 348 349 346 348 347 345 342 340 340 339 337 339 337 334 334 336 337 339 341 336 334 333
349 350 349 350 353 353 353 358 364 365 364 364 364 355 358 358 350 355 356 352 347 349 347 348 351 349 345 342 341 341 341 340 338 340 337 335 335 333 333 332 335 337 332
351 351 351 350 353 353 354 356 363 366 366 365 366 364 356 363 360 355 356 351 350 347 348 347 350 351 346 343 341 341 336 339 339 337 337 337 335 333 333 333 334 336 333
350 351 353 352 351 354 354 355 364 366 367 368 367 366 366 361 362 359 354 356 349 348 347 347 351 349 346 343 342 340 339 340 340 338 337 337 336 334 333 333 332 335 338
350 350 349 352 350 352 354 355 358 367 368 368 369 367 367 366 362 359 357 352 354 349 348 347 348 347 346 344 343 339 340 340 339 338 336 338 337 334 335 332 333 332 332
347 350 350 349 350 350 353 355 357 364 368 369 369 368 367 368 364 361 358 360 352 352 350 347 346 349 348 345 343 341 339 338 338 337 336 338 336 335 334 335 335 334 333
341 343 350 351 350 349 351 353 356 357 365 368 368 368 368 367 367 361 363 361 357 357 349 347 348 347 348 345 345 338 339 341 340 339 338 337 337 336 335 335 335 333 332
346 345 347 352 353 351 349 351 353 355 360 366 367 368 368 367 366 365 360 362 360 359 349 347 347 349 347 344 344 341 338 339 337 338 339 337 337 337 335 336 335 335 334
352 350 349 351 353 352 352 351 352 355 357 364 365 366 368 367 366 365 364 362 363 361 353 350 348 348 346 345 344 344 343 340 339 339 338 338 338 336 336 335 334 335 334
347 354 351 355 361 357 355 353 353 354 356 360 364 366 368 367 366 365 365 363 363 362 356 352 349 347 344 344 343 344 343 341 340 339 338 337 338 336 338 336 336 333 329
345 352 359 360 362 364 360 356 355 355 355 357 362 363 366 368 368 366 365 364 363 361 356 351 348 346 342 341 339 343 342 342 342 340 340 338 339 338 337 335 332 328 330
344 348 358 360 362 363 362 359 357 358 355 359 360 362 365 368 368 367 365 365 363 359 354 350 347 344 342 338 337 342 342 340 341 341 340 340 340 339 337 335 327 329 329
344 347 342 355 358 356 358 363 360 361 360 361 363 364 367 369 369 367 366 364 362 357 352 348 345 342 343 343 340 339 337 339 340 341 340 340 340 339 337 334 329 327 328
346 348 340 338 353 354 356 360 365 362 363 363 368 368 369 370 369 367 365 362 361 355 352 347 344 343 344 343 342 337 335 334 334 338 338 339 342 340 337 332 328 329 327
336 344 340 337 341 355 357 363 364 366 364 367 366 369 370 369 367 365 362 361 360 355 350 347 344 343 343 344 342 339 337 335 336 339 338 337 338 338 335 331 329 331 330
338 336 339 346 353 356 358 365 366 368 366 367 368 369 368 368 366 361 358 357 356 354 350 347 344 343 343 342 341 341 340 339 340 337 338 339 338 336 334 330 328 330 330
348 343 352 354 362 359 365 368 369 368 367 366 368 367 366 363 361 358 353 355 354 350 347 344 343 343 341 340 342 342 341 339 338 338 337 337 336 332 330 329 328 326 324
352 350 352 370 364 368 368 369 371 367 367 366 365 363 360 358 356 354 353 349 348 346 344 345 344 342 342 343 343 342 339 338 337 336 335 333 332 332 330 328 324 320 318
359 358 363 369 372 368 368 369 367 364 363 363 362 361 357 353 351 350 348 346 345 345 346 346 346 344 342 341 338 337 335 335 335 334 330 329 327 326 325 323 321 320 320
363 360 367 368 369 368 366 365 364 363 362 361 356 353 351 349 344 342 345 345 345 345 344 344 344 344 343 341 336 333 331 331 330 329 329 325 325 324 323 322 322 322 321
359 361 360 359 361 360 359 358 360 360 357 352 351 349 346 341 339 339 337 338 340 339 340 341 339 337 337 335 332 329 328 328 329 327 331 329 328 328 326 325 323 322 321

GFSMW_925_thetae_033.txt.gz
Theta_e
343 346 346 349 350 350 351 350 352 356 355 354 354 354 356 352 351 351 354 353 352 353 351 351 350 351 352 348 346 343 336 332 338 335 334 337 337 335 339 338 337 338 341
343 345 346 347 349 351 352 350 351 352 356 354 353 354 354 352 349 348 351 354 352 348 348 348 349 350 349 347 345 338 334 340 337 335 337 336 339 338 337 336 334 334 340
344 345 345 347 349 350 352 353 351 352 356 355 355 353 350 350 352 353 353 353 353 350 352 349 349 349 350 347 344 339 335 335 337 336 337 336 337 340 338 335 334 333 334
343 344 346 347 349 352 352 352 352 352 355 356 355 353 353 357 356 356 354 355 353 353 352 352 350 350 344 348 339 336 336 333 334 339 337 335 335 336 335 335 334 331 332
342 345 346 347 349 351 353 355 353 353 355 354 354 352 351 354 354 353 351 353 354 349 348 349 352 349 347 342 338 338 330 338 338 338 340 337 336 335 333 333 336 332 332
341 342 346 348 348 352 355 356 355 355 356 355 352 358 357 353 349 347 351 354 352 348 349 348 350 348 346 340 338 337 333 336 338 337 335 336 338 337 337 331 331 333 335
342 341 345 347 349 350 357 358 357 357 357 356 353 353 359 356 350 354 350 349 348 347 349 350 346 348 344 342 340 337 333 332 337 333 335 335 335 335 333 332 331 331 331
344 342 342 346 349 350 355 359 359 359 359 358 355 350 355 360 354 352 356 352 348 346 347 347 345 349 344 343 340 340 337 340 335 340 334 335 335 335 333 333 333 328 330
345 344 343 345 349 350 355 357 361 360 361 361 358 354 351 353 359 359 352 355 350 347 347 347 348 349 347 343 342 340 337 338 338 336 337 333 333 335 333 332 332 331 330
342 346 345 344 350 351 352 357 363 362 362 361 362 361 356 355 356 359 360 352 355 350 349 347 348 349 348 344 342 341 337 338 339 339 336 336 336 337 333 334 333 333 332
342 344 346 345 349 351 352 354 362 363 363 363 362 363 364 360 358 358 361 354 353 354 352 348 347 348 347 343 343 341 339 340 338 338 338 338 338 337 334 335 335 334 334
343 342 346 347 347 351 352 354 363 363 365 364 364 364 364 365 365 361 359 357 355 354 352 347 347 347 345 345 345 342 341 338 340 339 338 337 337 336 332 333 333 334 333
336 340 345 348 348 351 353 354 360 364 364 365 366 366 366 365 367 365 362 358 356 354 354 349 346 345 344 343 345 342 340 339 340 338 337 336 336 335 337 336 337 336 335
339 339 346 345 347 348 352 353 355 361 364 366 366 367 366 366 366 366 363 362 359 358 356 353 348 346 346 344 346 344 342 337 340 340 339 338 336 336 336 335 335 334 334
343 340 345 346 346 346 349 352 354 355 362 364 366 366 366 366 367 366 365 361 362 360 358 354 350 348 347 346 346 343 342 338 337 340 337 338 336 337 337 336 335 335 335
345 345 342 347 348 347 347 349 352 354 354 362 364 365 365 367 367 366 365 365 360 362 361 356 351 349 349 347 344 339 342 338 340 341 339 339 337 338 338 337 337 335 335
340 344 346 345 348 351 349 349 350 351 354 354 361 363 364 366 366 366 365 365 362 363 363 358 354 351 349 347 344 342 341 341 343 341 339 340 338 338 338 338 336 335 331
337 338 349 348 350 359 352 351 351 351 354 356 357 361 362 365 367 366 365 365 364 364 361 357 355 351 349 345 341 341 343 343 343 341 341 340 339 339 337 337 335 334 330
334 339 340 350 353 360 358 353 353 354 353 356 357 361 363 365 367 367 366 365 364 362 359 357 352 349 346 344 340 338 337 341 342 341 340 339 340 338 338 337 336 334 331
330 333 338 337 353 353 361 357 355 357 355 354 358 359 363 365 367 367 366 365 364 361 357 354 351 347 344 342 341 339 340 339 338 337 338 334 338 336 335 334 334 331 330
331 331 332 336 343 352 359 362 359 357 361 359 364 364 366 368 368 366 365 364 361 360 356 352 348 346 343 342 343 343 341 338 335 335 335 336 338 336 335 334 334 331 329
348 346 338 342 345 344 358 359 362 361 360 366 367 370 369 368 365 363 362 361 358 354 350 347 345 345 344 343 343 343 342 341 339 339 339 337 336 335 333 331 330 329 327
346 350 362 368 370 360 359 362 366 366 366 369 369 368 366 363 362 359 357 356 355 351 348 346 344 344 343 343 342 341 341 341 339 339 338 336 335 333 332 331 330 328 325
360 364 365 365 366 370 369 370 368 368 367 365 362 359 359 356 355 353 353 352 348 347 346 345 344 343 342 343 342 343 342 339 337 336 334 332 329 329 329 328 327 324 321
362 364 363 365 366 367 366 366 366 365 362 360 355 352 350 349 348 348 348 348 347 346 345 344 344 344 343 343 341 339 337 336 335 334 331 327 327 326 324 324 324 322 320
356 358 362 362 364 364 363 362 361 359 355 351 350 344 341 342 343 342 339 342 344 345 344 344 343 343 342 340 337 333 329 329 329 329 329 329 326 325 325 324 322 322 322

GFSMW_925_thetae_036.txt.gz
Theta_e
344 344 350 350 348 348 350 351 352 350 348 348 347 348 348 347 352 354 351 351 350 351 350 348 350 351 351 350 347 345 339 332 337 334 330 338 337 336 340 339 341 341 341
344 343 347 349 348 348 351 352 352 350 350 351 349 349 348 349 351 352 352 353 353 350 352 348 349 348 351 348 346 340 332 337 336 334 336 335 337 337 337 335 335 341 340
343 343 344 347 349 348 351 350 351 351 352 352 352 351 350 351 354 353 349 350 351 347 350 348 348 349 349 348 345 337 334 336 338 335 337 334 334 338 337 333 338 340 338
343 342 344 347 348 349 350 350 351 352 353 354 353 352 353 354 352 350 350 351 353 353 349 351 347 348 349 348 345 339 335 331 337 338 335 335 334 334 336 335 333 333 335
342 342 343 344 347 348 351 350 350 352 353 354 354 352 352 350 349 353 354 354 353 353 352 350 350 348 349 347 344 337 332 334 335 339 338 338 338 332 332 333 335 332 331
342 342 343 344 345 348 350 351 351 353 353 353 354 353 353 351 350 354 355 354 354 354 352 351 351 349 344 347 340 338 335 334 336 336 336 335 336 337 337 328 329 332 334
341 341 342 344 345 347 350 352 353 354 354 354 355 355 352 350 349 351 353 350 353 353 348 352 351 349 346 344 340 338 337 333 337 335 335 335 334 334 332 330 329 329 330
340 341 342 344 345 347 351 353 353 354 354 354 355 354 352 349 350 353 350 350 350 352 348 350 350 349 346 344 341 340 336 331 332 335 334 335 334 334 333 331 330 326 327
339 340 341 343 345 347 351 354 354 353 355 354 353 353 353 354 355 355 353 352 351 349 347 347 349 347 346 346 342 339 337 335 336 333 337 333 334 335 333 333 332 330 327
340 340 340 343 346 346 351 353 354 353 354 355 355 354 352 353 356 356 355 352 348 348 347 347 348 346 346 347 344 340 339 337 335 337 335 335 333 335 334 333 332 332 330
342 341 341 340 344 347 349 354 355 354 354 356 356 355 354 352 354 357 358 357 354 353 348 347 347 346 347 347 345 342 339 337 334 338 338 335 335 336 336 334 334 333 333
343 342 342 341 342 347 348 353 356 356 355 356 357 357 356 354 352 355 356 357 359 354 353 350 347 347 347 348 347 343 339 338 336 338 339 337 336 336 337 334 334 334 332
338 342 343 341 341 346 348 352 356 357 357 357 358 358 359 358 356 354 353 352 355 357 353 353 350 348 348 348 347 342 339 338 336 337 338 338 337 337 336 333 333 333 334
337 334 337 341 342 346 348 349 353 358 358 359 359 359 359 360 359 358 356 355 354 357 354 354 353 350 348 347 347 342 341 339 338 336 338 339 338 336 335 333 335 336 335
336 338 338 339 343 345 348 350 351 357 359 361 360 360 360 361 361 361 360 358 356 356 356 355 353 350 348 348 347 344 340 341 339 339 338 340 338 337 336 334 336 335 334
335 334 336 338 344 345 349 350 351 357 359 361 362 362 362 362 362 362 363 361 360 358 357 355 353 351 349 347 346 344 342 342 341 340 337 338 340 339 338 335 336 337 335
337 338 338 339 344 346 349 350 351 353 359 360 361 362 363 363 363 362 363 363 360 360 359 357 354 353 352 350 348 346 345 344 343 341 338 335 339 339 339 337 338 338 336
334 336 339 342 344 345 346 350 351 353 355 360 361 362 363 363 363 364 363 363 361 359 360 359 357 355 355 353 350 348 346 345 342 339 337 338 340 339 339 338 337 337 336
330 331 338 343 345 346 345 346 348 351 353 355 359 361 362 362 364 364 363 363 363 360 360 360 358 358 357 357 351 348 346 344 343 340 340 342 342 340 338 337 337 335 333
327 334 337 344 343 348 347 346 346 348 350 352 352 358 361 362 363 364 363 363 363 361 359 359 360 360 359 357 352 347 343 343 342 342 341 341 341 340 338 337 337 333 331
326 329 333 334 346 348 354 348 348 347 348 351 352 353 359 361 363 364 364 363 362 360 358 359 357 357 354 353 348 345 341 339 338 339 339 340 337 336 334 335 334 333 332
344 339 326 327 333 345 356 352 349 350 350 349 351 354 358 360 362 364 364 362 361 356 354 350 347 348 350 347 344 342 341 340 340 340 340 337 337 338 337 335 333 331 330
344 356 343 344 344 339 355 356 353 352 354 353 355 356 359 361 364 364 362 360 357 352 347 346 346 346 346 345 343 342 343 342 341 340 339 339 337 336 335 331 331 330 329
357 360 359 359 360 361 349 354 357 356 358 358 363 364 364 364 363 362 360 356 352 348 346 345 345 346 344 343 342 342 342 341 341 339 338 335 335 332 330 330 330 329 328
357 360 358 359 360 365 363 360 362 363 365 364 363 361 356 357 350 348 349 350 348 348 346 346 346 343 343 343 342 341 341 340 339 335 333 330 329 327 327 327 326 327 325
353 354 356 358 359 360 361 363 363 361 358 356 350 345 341 336 335 329 331 344 349 351 350 349 346 343 342 342 341 338 336 335 335 332 331 328 326 326 326 325 324 323 322

GFSMW_925_thetae_042.txt.gz
Theta_e
346 347 347 348 348 348 349 348 348 347 346 346 346 347 347 349 351 349 349 347 347 349 350 349 349 348 349 349 350 347 344 339 333 335 334 336 335 339 337 339 340 340 338
346 345 346 348 347 347 348 348 348 348 348 347 346 348 348 348 351 349 348 350 349 348 349 349 350 347 349 349 349 346 342 330 335 332 332 337 337 338 340 340 341 339 338
348 344 346 347 348 347 347 348 347 347 348 347 347 348 349 350 351 349 348 350 350 349 349 346 351 349 348 348 348 346 339 330 336 334 335 337 338 335 334 337 339 338 339
346 344 345 346 347 348 347 347 347 348 348 348 348 348 349 350 351 350 349 348 350 350 351 351 350 350 348 347 348 346 337 335 335 336 335 335 335 338 339 333 337 339 338
346 343 343 345 346 347 347 347 347 348 348 348 348 348 349 350 350 347 346 348 350 351 350 351 351 351 348 346 348 345 341 335 333 335 335 335 333 334 334 336 334 339 337
344 343 341 343 345 347 347 346 347 348 348 348 349 349 348 349 348 348 347 348 349 348 349 349 351 349 348 347 347 346 342 334 329 335 336 334 334 332 332 332 331 333 332
345 344 343 341 344 346 347 346 347 348 348 349 348 349 349 349 348 349 348 347 348 349 349 350 351 351 350 348 347 346 343 336 332 333 336 336 333 333 334 330 328 330 328
345 345 344 342 341 345 347 346 347 347 348 348 348 349 349 349 349 350 350 348 346 347 351 352 351 351 351 349 348 346 344 336 335 333 335 334 333 333 333 332 330 330 327
341 343 343 342 341 343 346 346 347 347 347 349 349 349 350 350 349 350 350 350 346 348 352 352 352 352 352 349 348 344 343 338 337 332 334 334 334 333 333 331 330 329 332
337 341 342 341 341 341 344 346 346 347 347 349 350 350 350 350 350 350 350 350 349 346 348 351 350 352 352 349 349 345 343 339 338 332 331 332 333 334 333 332 332 331 329
337 338 340 341 341 340 342 345 346 347 347 349 350 351 350 350 350 350 350 350 350 349 346 349 350 350 352 348 350 347 344 340 339 335 333 331 332 333 333 333 332 331 330
337 337 338 339 340 340 341 343 345 347 348 348 350 351 351 351 350 350 350 350 350 350 347 348 350 349 351 348 349 348 345 341 340 337 335 333 334 333 333 334 334 333 332
338 338 337 338 338 339 340 342 344 346 348 348 349 351 351 351 351 350 350 350 350 350 347 348 350 349 350 348 347 348 346 343 342 340 337 333 334 336 334 334 335 334 333
336 338 338 337 337 338 340 342 344 346 347 348 349 350 351 351 351 351 351 351 351 351 348 349 351 350 349 348 347 347 347 345 343 343 340 336 332 333 336 335 335 335 334
336 336 338 337 336 337 339 342 344 346 348 349 349 350 350 350 350 350 351 352 352 351 350 348 351 349 348 347 347 346 346 345 344 344 344 340 336 334 335 336 335 335 334
336 336 337 337 336 336 339 342 344 347 348 349 349 350 351 351 350 350 350 350 351 352 352 350 350 350 348 348 349 348 346 345 345 344 345 344 340 336 335 336 337 337 336
335 335 335 336 337 336 338 342 343 347 348 350 350 350 351 351 351 351 350 349 350 351 352 351 351 351 351 351 351 351 348 347 346 346 345 342 341 339 335 336 336 338 337
332 334 333 334 335 337 337 340 343 346 349 350 350 350 351 351 352 352 352 351 350 349 350 351 351 351 351 352 352 353 351 347 348 347 345 344 343 341 338 338 337 338 339
326 332 333 333 334 335 339 340 342 344 349 351 351 351 352 352 353 354 354 353 353 352 351 351 351 350 350 349 350 350 348 345 347 347 345 345 343 342 342 339 338 337 338
324 327 330 331 331 332 334 339 343 344 347 351 352 353 353 354 354 354 355 355 355 355 355 353 352 351 350 350 350 350 348 345 345 346 346 345 345 343 340 338 337 338 338
323 324 326 333 334 334 334 340 343 345 346 348 352 354 355 355 355 355 355 356 356 357 357 357 355 353 351 351 351 351 348 346 345 342 345 344 344 340 340 340 340 340 337
323 324 328 329 335 337 340 342 344 343 346 347 351 353 355 356 357 357 357 358 358 358 359 358 357 353 353 352 352 351 350 346 344 346 346 343 341 340 340 340 338 336 335
346 328 321 338 343 341 340 339 341 343 346 347 349 353 355 356 357 358 358 359 359 359 359 359 357 354 352 352 353 352 347 346 347 345 342 339 338 338 338 336 336 336 335
354 353 353 352 351 357 350 346 346 348 345 343 347 348 350 354 357 358 358 359 360 360 360 358 355 352 347 340 343 339 343 347 344 340 340 338 338 337 337 337 336 335 332
350 351 352 352 351 353 356 360 358 352 349 345 343 345 348 349 348 352 357 358 354 360 355 353 348 343 340 335 334 332 341 343 341 341 339 338 337 335 333 332 331 329 329
348 348 349 350 350 350 353 357 360 356 354 352 350 344 339 338 341 340 333 340 340 336 337 335 333 330 331 334 333 331 336 339 339 337 334 333 334 331 329 328 327 328 328

GFSMW_925_thetae_045.txt.gz
Theta_e
348 348 349 349 349 350 350 351 351 350 349 348 347 345 344 346 349 350 350 348 349 348 348 349 349 349 347 347 346 349 346 342 337 337 339 339 340 341 342 344 344 345 345
349 349 349 350 350 350 350 352 352 350 348 348 346 343 344 348 350 352 350 349 349 348 348 349 351 350 352 349 348 348 344 338 336 337 339 338 339 341 341 344 344 343 342
350 349 349 349 350 350 351 351 350 350 347 347 348 348 349 350 351 351 353 351 349 350 348 349 349 351 350 352 349 348 344 339 339 335 339 340 339 340 340 341 344 344 341
350 348 348 349 349 350 350 351 351 350 349 347 349 349 348 350 351 352 352 353 349 349 349 349 349 351 353 352 350 348 345 337 339 339 338 338 341 338 341 339 340 341 341
350 349 348 348 348 349 350 350 350 350 349 349 349 349 350 350 351 352 353 352 352 349 349 350 350 351 351 351 347 347 346 340 338 339 339 339 338 340 340 340 339 340 339
350 350 348 347 348 348 350 350 350 350 350 349 349 349 350 350 351 352 352 352 352 352 350 352 351 351 352 350 348 346 346 342 336 336 339 338 338 338 340 341 340 339 338
351 351 351 349 349 349 350 350 350 350 350 350 350 350 350 350 351 351 352 351 351 351 352 351 349 352 350 349 348 346 346 344 338 330 339 339 338 337 337 337 338 338 337
350 350 352 350 348 349 349 350 350 350 350 350 350 350 350 351 351 351 351 351 351 351 350 348 349 348 350 350 350 347 346 344 340 334 335 338 339 337 337 336 336 337 335
349 349 348 349 348 347 348 350 350 350 350 351 350 351 351 351 351 351 351 351 351 352 349 345 347 350 350 351 351 349 347 345 340 337 334 336 338 337 337 335 335 335 335
346 348 350 349 348 347 348 350 350 351 350 350 351 351 351 351 351 351 351 351 351 350 351 348 350 353 352 352 351 350 348 345 341 340 337 334 337 337 337 336 335 334 334
343 344 347 349 348 347 346 349 350 350 351 351 351 351 351 351 351 352 351 350 349 349 350 347 350 352 350 351 352 350 348 344 343 339 338 336 336 335 336 336 336 335 334
341 342 342 344 346 348 347 347 349 350 350 350 351 352 352 352 352 352 352 350 350 349 349 349 349 353 352 351 351 351 348 346 345 342 339 338 337 335 337 336 337 335 335
342 343 342 345 348 347 346 346 348 348 349 350 351 352 352 353 353 352 352 352 350 350 350 351 350 351 353 351 350 351 350 347 346 344 342 340 338 336 336 336 336 336 337
342 345 345 345 347 346 346 345 347 347 348 350 351 352 353 353 353 352 352 352 351 351 350 350 350 349 350 352 351 351 351 348 347 345 344 343 340 337 337 336 338 338 337
341 344 346 348 348 347 346 345 346 347 348 350 351 352 352 353 353 353 353 353 353 352 350 350 350 350 349 351 351 350 350 349 348 346 345 344 342 338 333 332 337 338 338
338 343 347 348 349 347 346 345 346 347 348 350 351 351 352 353 353 354 354 353 354 353 353 352 351 351 350 350 349 350 350 349 348 348 347 345 342 342 339 333 334 337 339
339 342 346 349 351 345 345 345 346 347 349 350 351 351 353 353 354 354 354 354 355 355 354 353 352 352 351 348 347 348 350 350 349 348 348 347 343 343 341 338 332 334 336
335 337 338 342 344 343 342 344 345 348 350 351 352 352 353 354 354 354 354 354 354 355 356 355 354 353 351 349 348 348 349 350 350 349 349 348 345 343 343 340 339 337 337
337 334 332 335 341 343 343 344 347 348 351 352 353 353 353 354 354 355 354 354 354 354 354 355 356 355 354 351 348 348 347 350 351 350 349 348 346 345 343 343 343 341 340
331 332 331 333 337 342 341 344 348 350 352 352 352 353 353 354 355 355 355 355 354 354 353 354 355 355 355 354 351 349 349 350 352 350 348 347 346 345 344 342 340 342 341
333 330 331 336 339 339 340 347 347 350 349 351 352 353 354 354 355 355 356 356 356 356 356 355 354 354 354 354 352 350 350 352 351 349 347 346 345 345 343 342 341 341 340
332 329 334 335 337 341 339 346 351 347 349 350 353 355 356 355 355 356 356 357 357 356 357 358 358 356 355 353 353 350 349 350 349 348 345 345 347 345 342 339 338 338 339
345 330 336 343 346 347 345 349 349 349 351 351 352 355 357 357 357 358 358 358 357 357 357 359 359 358 357 354 352 352 350 349 348 347 344 345 346 342 339 339 339 340 336
352 347 356 357 357 353 351 350 349 348 349 353 355 356 357 358 359 359 359 359 360 360 359 360 360 359 355 352 351 350 346 340 342 338 333 336 340 339 339 339 339 336 335
353 355 357 357 358 359 361 360 353 352 352 352 353 354 355 356 356 355 359 361 361 361 361 360 359 350 340 339 342 340 335 339 339 336 333 336 336 336 337 337 335 334 334
352 352 352 352 353 356 358 356 358 356 354 353 351 345 342 342 342 343 344 353 358 359 360 357 353 341 344 337 337 335 337 338 329 331 334 335 333 332 329 329 330 331 331

GFSMW_925_thetae_048.txt.gz
Theta_e
347 346 346 346 346 347 347 349 349 350 351 350 348 346 344 344 345 349 352 356 357 357 359 355 356 354 352 350 351 350 349 347 344 334 335 338 339 338 339 339 338 339 340
348 347 346 346 346 347 349 351 351 352 353 350 347 344 344 343 346 350 353 356 356 358 357 353 352 355 353 351 351 349 349 346 340 335 336 340 337 338 339 340 339 339 337
350 349 348 347 346 347 349 350 353 355 355 350 349 348 345 347 348 351 353 355 357 356 357 354 349 355 351 350 352 352 350 345 343 340 339 338 339 337 338 342 340 340 337
351 348 347 348 346 346 348 351 354 356 357 353 348 348 344 345 346 350 350 351 354 355 355 355 354 352 353 352 353 352 351 349 341 338 337 342 345 338 341 338 341 340 340
352 350 347 346 346 348 349 351 354 356 357 356 350 350 348 343 347 351 352 354 353 356 354 355 354 356 356 354 356 353 353 348 343 335 338 339 339 340 339 342 340 340 339
351 352 346 345 347 348 350 351 355 357 357 357 355 353 351 348 350 353 354 354 354 353 356 355 356 357 357 356 357 355 353 350 347 336 337 337 337 338 339 339 340 340 340
351 352 352 348 346 348 349 351 354 358 358 357 356 355 354 353 354 355 355 354 351 351 352 356 356 357 358 356 357 357 352 352 349 345 335 336 337 336 335 336 337 337 338
352 352 353 351 349 348 351 352 355 358 358 357 357 357 356 354 353 353 353 353 352 350 351 354 355 357 356 358 358 356 354 351 350 348 342 336 336 337 336 335 335 337 336
351 353 352 351 351 350 351 354 356 358 358 357 358 358 357 356 353 354 356 354 354 352 353 354 356 356 357 358 358 356 355 351 351 348 346 339 335 337 336 336 335 335 337
347 351 352 351 351 351 352 354 356 359 358 357 358 357 357 357 356 356 356 356 355 355 352 355 355 356 357 358 359 356 356 354 350 347 346 344 334 337 337 336 334 334 334
345 350 351 350 351 351 351 353 356 357 357 357 357 357 357 357 357 357 357 357 357 357 357 355 355 355 357 360 360 358 355 355 352 348 346 346 337 336 336 336 335 335 335
341 346 348 350 350 350 351 351 353 355 356 356 358 358 358 357 357 358 358 357 358 358 358 358 356 355 356 359 360 358 355 355 353 350 347 346 342 341 337 337 336 335 336
339 341 342 345 347 349 352 350 351 352 354 356 356 357 358 358 358 359 358 358 358 358 358 358 359 357 354 356 359 358 357 355 354 351 350 346 344 342 337 338 337 337 337
339 340 342 343 343 346 352 354 351 351 352 354 355 357 359 358 358 359 359 359 359 359 359 359 359 358 357 355 355 357 357 357 355 353 350 348 346 343 342 340 340 338 337
337 339 344 345 348 347 352 355 353 351 351 354 355 356 358 359 359 359 359 359 359 359 359 359 359 359 357 355 355 356 356 357 356 354 351 349 347 345 343 341 340 339 340
331 334 341 344 349 349 351 352 353 352 352 355 356 357 358 360 360 360 360 360 360 360 360 360 360 359 357 354 352 354 356 356 357 356 353 350 348 346 344 341 339 338 339
333 334 339 344 347 349 349 351 353 352 353 355 357 358 359 360 360 360 360 360 361 360 361 360 360 360 359 355 354 351 354 355 356 356 355 353 351 348 347 341 338 334 332
332 335 335 337 342 344 344 349 350 353 354 356 356 358 359 360 360 360 361 361 361 360 361 361 360 360 359 358 355 352 351 353 355 356 356 355 353 351 348 345 340 339 334
333 334 333 332 333 337 340 346 350 351 353 357 357 358 359 360 361 361 361 362 360 361 360 360 360 361 360 358 356 354 351 353 355 357 357 356 355 354 349 348 345 339 339
332 332 331 331 332 334 339 345 350 353 357 357 357 358 359 360 361 361 361 360 360 359 359 359 360 361 361 360 358 355 352 352 353 354 356 355 355 354 351 346 346 345 345
336 333 333 335 335 336 341 348 350 353 355 354 355 357 359 361 361 361 360 360 359 359 359 358 358 358 358 358 357 358 354 350 351 353 355 356 354 353 352 348 346 346 346
340 335 337 336 336 341 345 354 357 353 355 355 354 357 360 359 358 360 360 360 360 361 360 360 359 357 352 352 352 351 357 351 352 352 350 353 353 351 350 344 344 345 343
344 337 341 338 340 343 346 351 356 354 353 355 357 359 359 359 357 360 361 360 360 359 360 359 358 357 354 348 351 356 356 354 351 353 355 353 351 347 342 336 333 342 342
344 344 342 344 350 352 353 352 352 354 355 356 357 358 360 361 360 360 360 360 359 360 359 357 356 350 345 357 358 357 355 353 345 342 341 344 340 341 337 336 334 334 339
357 352 353 358 359 359 358 355 355 355 354 356 358 359 360 360 361 358 358 361 360 360 360 360 359 357 360 362 359 357 355 349 339 339 336 333 332 333 333 330 332 336 337
355 357 358 362 365 363 359 362 356 356 357 359 359 359 359 361 362 356 348 354 358 361 360 360 362 360 360 354 356 354 352 347 338 337 334 334 336 332 332 333 334 336 336